Temp
-18 -18 -18 -18 -18 -17 -16 -16 -14 -13 -12 -12 -12 -12 -12 -11 -12 -11 -12 -12 -11 -11 -11 -10 -10 -10 -10 -10 -11 -11 -11 -11 -11 -11 -11 -11 -12 -12 -12 -12 -12 -12 -11
-19 -19 -19 -18 -18 -18 -17 -17 -16 -15 -13 -13 -13 -13 -12 -12 -12 -11 -12 -11 -12 -12 -11 -11 -11 -10 -10 -11 -11 -11 -11 -11 -12 -12 -12 -12 -13 -13 -12 -12 -12 -12 -12
-19 -20 -19 -19 -19 -18 -18 -17 -17 -16 -15 -14 -13 -14 -12 -12 -12 -12 -11 -12 -12 -12 -12 -11 -11 -11 -11 -11 -11 -11 -11 -11 -12 -12 -12 -12 -12 -13 -13 -13 -13 -12 -12
-20 -19 -19 -19 -19 -19 -19 -18 -17 -17 -16 -15 -14 -14 -14 -14 -12 -12 -12 -12 -12 -12 -12 -12 -11 -11 -11 -11 -12 -12 -11 -11 -12 -12 -12 -13 -13 -13 -13 -13 -13 -12 -13
-20 -20 -20 -20 -20 -20 -19 -19 -19 -19 -18 -17 -15 -15 -15 -14 -13 -13 -13 -12 -12 -13 -13 -12 -12 -12 -12 -12 -12 -12 -12 -13 -13 -12 -13 -13 -13 -13 -13 -13 -13 -13 -13
-20 -20 -20 -20 -20 -21 -20 -20 -20 -19 -19 -18 -17 -16 -16 -15 -14 -13 -13 -13 -12 -13 -13 -13 -12 -13 -12 -12 -12 -13 -13 -13 -14 -13 -14 -13 -13 -13 -14 -13 -14 -13 -13
-20 -20 -20 -20 -21 -20 -20 -20 -20 -19 -19 -19 -18 -17 -16 -16 -15 -14 -14 -14 -13 -13 -12 -13 -12 -13 -14 -13 -14 -13 -14 -14 -13 -14 -14 -15 -14 -14 -13 -14 -13 -14 -14
-20 -20 -20 -20 -20 -20 -20 -20 -20 -19 -19 -19 -18 -18 -17 -16 -15 -14 -14 -14 -13 -13 -13 -12 -13 -14 -16 -15 -15 -14 -15 -15 -14 -14 -14 -15 -14 -14 -15 -14 -14 -15 -14
-20 -20 -20 -20 -20 -20 -20 -20 -20 -19 -19 -19 -18 -19 -18 -17 -16 -13 -14 -14 -13 -13 -13 -13 -13 -15 -15 -17 -17 -16 -15 -15 -14 -14 -15 -15 -15 -15 -14 -15 -15 -15 -14
-20 -20 -20 -20 -20 -20 -20 -20 -20 -19 -20 -19 -19 -19 -19 -17 -17 -14 -14 -15 -14 -14 -14 -14 -14 -16 -15 -16 -16 -16 -16 -16 -16 -16 -16 -15 -15 -15 -15 -15 -15 -15 -15
-20 -20 -20 -20 -20 -20 -20 -20 -20 -20 -20 -20 -20 -19 -19 -18 -16 -16 -16 -15 -15 -16 -16 -15 -14 -15 -15 -16 -16 -16 -16 -16 -16 -15 -15 -15 -15 -15 -15 -15 -15 -16 -16
-20 -20 -20 -20 -20 -20 -20 -20 -20 -20 -20 -19 -19 -17 -19 -19 -18 -17 -16 -16 -16 -16 -16 -17 -17 -16 -16 -16 -16 -16 -16 -15 -15 -15 -15 -15 -15 -16 -16 -15 -15 -15 -17
-19 -19 -19 -20 -20 -20 -20 -20 -20 -20 -20 -20 -19 -18 -18 -18 -18 -18 -17 -17 -16 -16 -16 -17 -16 -16 -16 -16 -16 -16 -16 -16 -16 -16 -16 -16 -16 -16 -15 -15 -15 -16 -17
-19 -19 -19 -19 -19 -20 -20 -20 -20 -20 -20 -20 -19 -19 -19 -18 -19 -18 -17 -17 -17 -17 -17 -17 -17 -16 -16 -17 -16 -16 -16 -16 -17 -16 -16 -16 -16 -15 -16 -16 -17 -17 -17
-19 -19 -19 -19 -19 -19 -20 -20 -20 -19 -20 -20 -20 -19 -19 -19 -19 -18 -18 -17 -17 -17 -17 -17 -17 -17 -17 -16 -16 -16 -16 -16 -16 -16 -16 -16 -16 -17 -17 -17 -17 -17 -17
-19 -19 -19 -18 -18 -19 -19 -20 -19 -20 -19 -19 -20 -19 -19 -19 -18 -19 -18 -18 -18 -18 -17 -17 -17 -17 -16 -17 -17 -17 -16 -16 -16 -16 -17 -17 -17 -17 -17 -17 -17 -18 -18
-19 -19 -19 -18 -18 -19 -19 -19 -19 -19 -19 -19 -19 -19 -19 -18 -18 -18 -18 -19 -18 -18 -18 -17 -17 -17 -17 -17 -17 -17 -17 -17 -17 -17 -18 -18 -18 -18 -18 -18 -18 -18 -19
-18 -18 -19 -18 -18 -18 -19 -18 -19 -19 -19 -19 -19 -19 -19 -18 -19 -19 -19 -19 -18 -18 -19 -18 -18 -18 -18 -18 -18 -18 -17 -17 -17 -18 -18 -18 -18 -18 -18 -18 -18 -18 -19
-18 -18 -18 -18 -18 -18 -18 -18 -19 -19 -19 -19 -19 -19 -19 -19 -18 -19 -19 -19 -18 -18 -18 -18 -18 -18 -18 -18 -18 -18 -18 -18 -18 -18 -18 -18 -18 -18 -18 -19 -19 -19 -19
-18 -19 -19 -18 -18 -18 -18 -18 -18 -19 -18 -19 -19 -19 -19 -18 -18 -18 -18 -19 -19 -19 -18 -18 -18 -18 -18 -18 -18 -18 -18 -19 -19 -19 -19 -19 -19 -19 -19 -19 -19 -20 -20
-18 -18 -19 -19 -18 -18 -18 -18 -18 -18 -18 -18 -18 -18 -18 -19 -19 -18 -18 -19 -19 -19 -18 -18 -18 -18 -18 -18 -19 -19 -19 -19 -19 -19 -19 -19 -19 -19 -19 -20 -20 -20 -21
-18 -18 -18 -18 -19 -18 -18 -18 -18 -18 -18 -18 -18 -18 -18 -18 -18 -18 -18 -18 -18 -18 -18 -19 -18 -17 -18 -19 -19 -19 -19 -19 -19 -19 -19 -19 -20 -20 -20 -20 -21 -21 -22
-18 -18 -18 -19 -19 -19 -18 -18 -18 -18 -18 -19 -19 -19 -19 -18 -18 -18 -18 -18 -19 -18 -19 -18 -18 -18 -19 -19 -19 -19 -19 -19 -19 -19 -19 -20 -20 -20 -20 -21 -22 -22 -23
-18 -18 -18 -18 -18 -19 -19 -19 -19 -18 -18 -18 -19 -19 -19 -19 -19 -18 -19 -19 -18 -18 -19 -19 -19 -19 -19 -19 -19 -20 -20 -19 -20 -20 -20 -20 -20 -20 -21 -22 -22 -23 -23
-19 -18 -18 -18 -18 -18 -19 -19 -18 -18 -18 -19 -19 -19 -19 -19 -19 -19 -19 -19 -19 -19 -19 -19 -19 -19 -20 -20 -19 -20 -20 -20 -20 -20 -20 -20 -21 -21 -22 -23 -23 -23 -24
-19 -19 -18 -18 -18 -18 -19 -19 -19 -18 -18 -18 -18 -18 -18 -19 -19 -19 -19 -19 -19 -19 -19 -19 -20 -20 -20 -20 -20 -19 -19 -20 -20 -20 -20 -21 -22 -22 -23 -23 -23 -24 -24
Height
5646 5644 5643 5645 5648 5649 5653 5658 5662 5671 5681 5691 5700 5702 5698 5710 5719 5724 5733 5743 5748 5753 5760 5764 5769 5772 5776 5781 5784 5787 5789 5790 5791 5793 5795 5796 5797 5797 5797 5797 5796 5795 5793
5635 5632 5632 5633 5635 5637 5639 5643 5648 5654 5664 5673 5681 5688 5699 5705 5709 5714 5714 5725 5737 5743 5749 5754 5759 5764 5767 5772 5775 5779 5782 5783 5784 5784 5786 5788 5789 5789 5788 5788 5787 5786 5784
5625 5624 5622 5623 5623 5625 5626 5629 5634 5638 5645 5655 5664 5671 5676 5690 5697 5705 5700 5712 5721 5730 5737 5745 5750 5755 5758 5762 5766 5770 5773 5775 5776 5777 5778 5778 5779 5779 5779 5778 5777 5776 5774
5616 5615 5614 5612 5612 5612 5613 5614 5620 5624 5631 5640 5649 5657 5664 5680 5686 5694 5694 5703 5709 5719 5726 5734 5742 5746 5750 5753 5756 5760 5764 5766 5768 5769 5770 5770 5770 5769 5769 5768 5766 5766 5763
5609 5609 5606 5603 5601 5601 5601 5602 5607 5612 5619 5626 5636 5644 5653 5665 5678 5678 5689 5693 5695 5707 5715 5721 5731 5735 5741 5744 5747 5749 5754 5756 5759 5760 5760 5760 5760 5759 5758 5756 5754 5753 5752
5603 5602 5599 5596 5592 5591 5592 5595 5598 5603 5610 5616 5624 5634 5643 5652 5665 5669 5681 5683 5691 5698 5708 5712 5719 5725 5731 5735 5739 5741 5744 5747 5749 5750 5749 5750 5750 5748 5746 5746 5743 5741 5739
5599 5597 5593 5589 5586 5586 5586 5589 5592 5597 5603 5609 5616 5625 5632 5645 5654 5660 5671 5675 5686 5692 5697 5703 5709 5713 5719 5724 5729 5732 5734 5736 5738 5737 5737 5739 5738 5735 5732 5730 5730 5730 5726
5596 5593 5589 5585 5582 5580 5582 5585 5588 5592 5597 5603 5610 5617 5623 5631 5639 5651 5663 5671 5677 5682 5688 5692 5696 5700 5706 5712 5716 5721 5724 5726 5727 5728 5726 5727 5724 5724 5725 5724 5719 5717 5715
5593 5590 5585 5582 5580 5578 5578 5580 5584 5587 5590 5595 5602 5609 5616 5621 5628 5641 5653 5656 5664 5672 5679 5682 5685 5687 5693 5700 5704 5708 5710 5712 5714 5714 5715 5716 5717 5715 5714 5711 5708 5706 5704
5591 5587 5584 5581 5579 5578 5577 5578 5580 5583 5585 5590 5596 5603 5610 5618 5627 5639 5645 5652 5652 5660 5668 5673 5675 5677 5682 5687 5692 5695 5699 5702 5704 5705 5707 5710 5707 5706 5703 5700 5700 5697 5694
5589 5585 5582 5580 5578 5577 5577 5577 5578 5580 5583 5587 5592 5601 5607 5611 5620 5629 5637 5645 5647 5655 5661 5667 5671 5676 5678 5682 5686 5687 5689 5693 5698 5700 5699 5698 5697 5694 5693 5692 5690 5687 5685
5588 5585 5582 5580 5578 5577 5576 5576 5577 5578 5580 5584 5591 5598 5603 5607 5616 5622 5633 5639 5643 5646 5654 5664 5669 5673 5676 5681 5680 5681 5683 5688 5689 5689 5689 5687 5686 5685 5684 5681 5679 5678 5675
5587 5585 5582 5579 5577 5576 5576 5577 5577 5578 5580 5583 5587 5594 5599 5606 5613 5619 5625 5632 5638 5644 5655 5658 5662 5667 5670 5673 5670 5673 5676 5678 5679 5680 5680 5679 5678 5677 5675 5671 5669 5667 5664
5587 5584 5580 5577 5575 5574 5574 5575 5577 5578 5581 5583 5586 5590 5595 5602 5610 5613 5621 5628 5634 5641 5646 5649 5656 5660 5661 5663 5667 5668 5669 5671 5673 5672 5671 5671 5669 5667 5665 5664 5661 5658 5653
5587 5582 5577 5572 5572 5572 5572 5573 5575 5577 5580 5583 5585 5589 5594 5600 5605 5610 5619 5624 5629 5634 5639 5643 5651 5656 5655 5657 5660 5663 5664 5665 5666 5665 5664 5662 5659 5657 5656 5654 5651 5646 5640
5587 5582 5576 5570 5568 5568 5569 5570 5572 5576 5579 5583 5586 5590 5595 5600 5604 5610 5617 5620 5625 5629 5634 5639 5642 5647 5650 5651 5652 5654 5655 5656 5656 5655 5654 5653 5651 5647 5646 5644 5638 5633 5627
5587 5582 5576 5571 5569 5567 5566 5566 5566 5571 5576 5580 5585 5589 5592 5597 5603 5607 5611 5617 5621 5625 5629 5632 5636 5640 5644 5646 5648 5648 5646 5646 5646 5645 5645 5644 5641 5639 5636 5634 5629 5622 5614
5587 5583 5579 5573 5570 5569 5568 5566 5566 5568 5573 5578 5582 5583 5589 5595 5602 5604 5607 5610 5616 5620 5624 5629 5632 5635 5638 5641 5642 5642 5641 5639 5638 5637 5636 5635 5632 5628 5625 5620 5617 5611 5603
5587 5584 5581 5576 5573 5572 5571 5569 5569 5569 5572 5577 5581 5585 5588 5593 5598 5602 5606 5609 5614 5618 5622 5626 5630 5632 5635 5635 5636 5635 5632 5631 5631 5630 5629 5626 5624 5619 5615 5609 5602 5597 5589
5587 5584 5583 5580 5576 5574 5574 5573 5572 5574 5576 5580 5583 5585 5589 5592 5597 5600 5604 5607 5611 5616 5619 5622 5624 5626 5628 5628 5627 5628 5625 5625 5625 5623 5622 5619 5615 5608 5601 5596 5590 5583 5575
5586 5584 5583 5582 5580 5578 5577 5576 5576 5577 5578 5581 5583 5586 5589 5592 5595 5598 5603 5606 5610 5613 5616 5617 5619 5619 5620 5622 5621 5620 5620 5620 5616 5614 5611 5606 5601 5597 5590 5584 5577 5569 5560
5585 5584 5583 5582 5581 5581 5579 5578 5579 5580 5581 5582 5584 5586 5589 5592 5595 5598 5602 5605 5607 5610 5612 5614 5616 5616 5616 5616 5616 5614 5613 5611 5607 5604 5601 5596 5591 5584 5578 5571 5563 5552 5547
5583 5582 5582 5581 5581 5580 5580 5579 5580 5581 5581 5581 5584 5586 5588 5592 5594 5597 5600 5601 5603 5606 5608 5610 5611 5611 5610 5609 5607 5605 5604 5601 5598 5594 5590 5585 5579 5572 5566 5557 5550 5545 5537
5579 5580 5580 5579 5579 5579 5580 5580 5581 5582 5582 5582 5583 5585 5588 5590 5593 5596 5598 5600 5601 5602 5603 5602 5602 5602 5602 5602 5601 5600 5596 5591 5586 5582 5578 5574 5569 5563 5555 5547 5538 5530 5521
5576 5576 5577 5577 5577 5577 5578 5579 5580 5581 5582 5583 5584 5586 5588 5590 5592 5593 5594 5594 5595 5596 5596 5597 5597 5596 5595 5594 5591 5588 5584 5582 5579 5576 5572 5565 5557 5548 5540 5533 5525 5517 5509
5572 5573 5574 5574 5575 5575 5576 5577 5577 5578 5579 5580 5581 5582 5583 5584 5586 5587 5588 5589 5590 5591 5591 5591 5591 5590 5588 5586 5583 5581 5578 5575 5571 5565 5558 5550 5542 5535 5529 5522 5514 5506 5497
Wind_Speed
40 41 43 45 44 47 48 55 64 73 80 80 78 84 69 69 66 70 66 64 60 56 53 52 50 49 47 47 47 47 45 43 41 39 38 37 37 37 38 38 39 41 43
35 38 39 40 41 45 46 47 53 62 77 83 82 81 68 71 72 66 80 70 65 59 56 55 53 52 49 49 50 49 49 48 46 44 41 41 42 42 43 44 46 47 48
32 31 33 35 37 39 46 47 49 56 67 81 85 79 69 76 61 69 74 77 70 65 58 57 56 56 53 53 51 50 50 52 51 48 46 46 47 48 47 50 52 53 54
27 27 28 29 34 38 39 44 49 53 60 75 84 86 86 73 73 70 67 61 74 72 62 57 58 56 57 55 53 51 52 53 53 52 50 50 51 52 51 55 57 57 60
24 23 27 28 31 33 34 39 42 51 52 63 76 82 77 88 49 53 74 63 77 71 68 61 62 59 58 57 55 51 54 54 54 54 54 54 54 58 57 59 63 58 57
23 24 24 25 28 26 26 29 34 42 45 50 61 77 78 72 77 55 70 44 62 72 70 66 69 62 61 59 57 55 54 55 54 56 57 58 56 58 58 60 65 60 64
21 21 22 22 17 18 19 23 26 32 37 39 48 61 77 77 60 78 71 65 49 51 67 71 73 65 64 61 59 57 56 56 57 58 54 56 60 64 67 69 66 66 58
18 17 17 17 15 15 17 20 23 24 27 31 39 50 64 66 73 59 43 56 74 51 57 80 74 67 63 60 59 58 56 56 58 61 55 58 64 62 61 55 51 51 42
15 17 15 14 11 12 16 18 20 22 25 27 36 49 51 67 66 74 53 38 50 48 52 60 79 69 65 61 61 60 63 65 63 57 58 64 59 58 37 34 33 33 37
18 17 13 11 10 11 12 14 16 17 24 28 29 40 40 33 63 66 52 44 32 37 43 53 73 63 67 67 63 65 62 59 60 59 54 55 48 37 27 32 38 43 48
19 14 11 9 7 5 7 10 12 14 19 25 27 29 30 26 48 56 66 30 28 28 33 44 65 63 67 58 61 62 60 60 56 54 34 21 18 26 37 43 48 48 49
17 13 11 10 6 5 3 4 7 11 16 18 27 30 18 30 42 31 36 30 23 17 24 37 27 24 25 22 21 31 45 49 44 23 19 21 28 37 44 51 51 51 50
13 14 13 11 8 5 4 4 4 6 9 14 19 28 24 28 30 24 35 30 26 26 31 29 25 32 26 18 12 18 15 18 23 26 28 28 34 42 50 46 48 49 48
14 14 14 12 11 8 7 6 7 8 9 12 14 19 20 20 16 26 29 28 31 23 21 17 18 26 19 16 17 12 9 12 18 21 31 40 46 45 45 45 46 47 49
17 19 20 14 10 9 9 8 9 10 10 12 15 16 14 16 15 12 11 22 17 17 20 20 23 28 25 21 22 28 21 19 23 26 32 39 41 42 44 43 45 49 51
20 21 19 14 9 11 14 15 15 14 14 13 14 16 18 17 16 17 26 17 18 17 21 21 19 22 16 24 23 21 28 28 28 31 36 39 39 38 41 46 49 48 51
15 18 22 13 7 5 6 8 3 19 22 19 19 18 18 20 19 22 23 23 23 16 18 16 18 18 18 23 25 29 28 29 32 35 35 35 35 39 43 47 49 50 51
13 15 18 15 5 6 4 3 5 6 12 18 23 24 26 17 24 12 24 21 24 19 18 24 22 22 24 28 28 31 32 35 37 31 31 35 39 42 44 46 51 53 55
9 12 14 16 10 4 3 5 7 12 14 18 21 18 19 19 25 20 20 24 27 22 22 19 22 24 31 31 32 33 33 30 27 30 35 38 41 45 46 50 52 54 56
8 9 11 12 16 5 6 10 10 13 9 13 16 19 14 15 15 20 24 22 21 20 25 27 30 25 27 31 35 35 24 25 30 33 36 39 42 46 49 51 52 54 54
7 8 9 10 11 9 4 7 9 13 14 12 9 13 16 17 17 24 28 22 21 21 25 29 32 36 32 29 20 22 26 30 31 35 38 42 44 46 48 50 52 53 55
8 7 6 6 8 8 6 7 7 8 8 6 9 9 11 14 15 25 25 22 24 26 26 28 27 29 24 22 24 25 28 31 33 37 40 42 44 47 50 53 54 57 59
12 9 7 5 6 4 4 4 4 6 6 7 8 9 12 13 14 16 15 19 24 26 29 28 22 21 21 23 24 26 30 33 36 38 40 43 47 51 54 56 56 57 59
13 13 12 11 8 5 3 2 3 2 3 4 5 7 10 13 18 19 20 19 18 18 17 16 17 20 21 23 26 28 30 33 36 40 43 47 50 52 54 55 57 60 61
11 10 11 13 12 12 11 10 8 8 8 7 7 9 12 13 14 15 13 12 12 13 15 16 18 21 24 25 27 28 31 35 38 41 45 49 52 54 55 56 57 58 60
16 13 12 11 10 11 13 12 11 10 8 8 7 7 7 7 8 9 11 12 13 15 17 19 21 22 23 25 28 31 33 36 40 45 50 54 55 55 55 56 57 59 61
Wind_Direction
272 267 263 256 250 248 246 241 236 229 226 228 226 231 235 230 233 229 229 233 232 231 231 230 231 231 232 235 235 237 236 237 240 246 252 258 263 268 275 281 283 283 285
270 267 264 260 257 250 248 244 239 231 226 225 226 227 234 239 235 233 222 227 231 232 232 231 230 232 231 236 237 238 241 242 244 245 249 256 262 266 270 278 280 283 284
268 262 272 264 256 252 248 246 240 235 228 223 225 226 226 231 237 238 238 226 228 229 231 234 233 232 231 234 238 241 244 245 248 251 253 257 261 265 270 275 280 282 284
274 270 284 269 264 260 257 254 239 233 229 224 222 226 224 228 230 231 235 243 228 230 228 232 235 235 235 234 236 240 244 248 250 253 256 259 262 265 269 274 277 284 288
278 286 288 274 270 267 259 254 240 232 230 226 223 224 228 225 229 247 236 249 224 228 227 228 234 236 237 238 237 238 243 246 250 253 255 258 262 270 273 271 276 279 285
281 296 292 285 278 264 252 247 237 235 233 229 224 225 222 224 224 233 226 244 236 230 231 230 234 233 236 239 242 240 243 247 249 253 255 260 265 271 272 273 273 284 291
294 303 295 291 273 256 247 233 234 234 236 236 226 223 225 224 228 233 241 250 240 241 233 232 235 232 235 237 240 242 243 247 249 250 254 263 267 268 268 268 288 285 287
305 310 298 292 266 250 240 230 235 234 237 231 226 219 224 223 223 216 225 237 236 252 248 237 229 230 231 234 237 241 244 246 249 254 257 262 263 269 279 288 286 285 284
311 322 315 299 265 234 227 229 227 230 223 218 221 218 228 227 228 223 237 239 240 238 244 247 240 228 229 233 236 238 242 244 253 257 259 262 270 277 286 289 279 277 280
317 324 315 302 278 249 244 234 228 228 224 212 211 220 229 238 224 225 220 243 236 241 255 253 236 228 230 231 233 236 244 250 253 255 263 275 277 268 278 279 282 280 281
332 326 315 303 291 264 241 236 236 231 221 213 206 211 217 224 223 225 234 233 224 231 243 250 248 245 242 240 244 241 242 249 261 268 268 266 280 275 272 276 280 282 281
337 335 325 308 292 268 254 243 237 228 216 206 188 193 181 223 227 228 223 217 208 212 213 226 233 236 228 240 251 244 256 259 265 246 279 270 263 267 272 278 277 282 283
344 338 324 303 281 247 246 229 210 209 209 207 203 198 218 216 214 216 231 228 215 204 218 225 234 214 233 260 251 239 238 253 248 260 268 273 271 274 279 278 280 279 286
345 338 325 309 299 266 224 216 210 197 199 199 206 207 205 198 200 213 199 214 211 226 235 238 249 239 254 279 217 247 278 295 284 275 270 274 273 273 278 277 285 289 292
345 333 339 296 279 263 230 238 202 210 204 196 196 194 204 190 193 178 206 220 221 243 251 251 258 262 259 234 234 268 274 299 291 286 277 272 272 275 279 287 289 292 295
344 333 358 352 303 249 243 234 217 220 212 205 193 182 179 173 171 177 184 185 201 240 261 267 264 253 244 236 235 250 264 285 287 291 288 279 276 284 290 290 292 296 301
352 351 3 7 22 11 349 327 332 214 222 211 194 179 175 170 173 184 184 198 203 213 203 207 220 237 248 252 264 290 286 290 282 279 275 278 288 289 291 294 296 298 300
355 359 7 18 34 14 346 290 238 236 212 201 194 189 206 202 189 201 196 203 200 218 207 221 222 237 254 269 261 270 277 273 273 273 285 288 288 291 293 298 299 303 305
356 3 17 18 30 65 42 95 128 142 171 192 190 206 185 186 203 222 193 192 200 211 215 229 235 250 257 267 272 268 269 269 284 293 288 292 295 298 300 300 303 303 305
353 5 16 35 34 89 106 113 92 134 116 153 187 202 200 218 231 223 216 194 212 225 232 235 237 253 271 268 266 267 279 290 286 289 293 295 298 303 305 306 306 308 310
332 353 9 24 49 60 135 130 114 123 142 176 187 194 187 203 219 198 209 220 234 243 248 252 252 260 268 273 277 284 284 288 296 298 299 303 304 304 305 307 310 311 313
300 323 348 15 21 51 79 139 146 149 152 172 181 185 202 211 210 207 218 233 245 244 252 259 254 265 278 286 285 289 295 298 300 302 304 308 310 311 311 312 314 317 316
268 272 288 300 327 355 34 49 98 152 174 190 190 202 202 212 219 227 227 246 251 251 252 251 257 270 277 283 293 298 300 304 308 310 312 312 313 314 315 315 315 314 313
279 270 264 262 253 255 267 275 291 215 186 165 169 220 243 235 225 231 236 235 238 246 260 268 275 283 289 291 294 299 305 311 316 317 317 315 315 315 315 315 316 316 317
291 291 284 266 266 250 248 262 266 258 258 250 236 219 217 222 228 237 247 253 256 265 275 280 284 289 297 302 306 311 314 317 317 314 313 316 317 318 318 317 317 317 318
274 279 280 274 274 264 251 251 257 253 244 243 244 246 249 252 256 261 266 271 273 275 282 290 295 295 298 303 308 310 310 311 313 317 320 322 322 319 317 317 317 319 320